STARLINK-1893 (46786 NORAD) Tracking and Keplerian Element Data

This shows tracking and keplerian element data for the satellite.

Feedback or suggestion? Click here.




ElementValue
Catalog46786
NameSTARLINK-1893
Epoch Orbit1358
Epoch Day18.25002315
Epoch Year2021
RAAN101.183
Inclination53.0541
Eccentricity0.0002203
Argument of Perigee350.0451
Mean Anonmoly225.4869
Mean Motion15.62785488
Decay Rate-0.00058236
L11 46786U 20074AZ 21018.25002315 -.00058236 00000-0 -63386-3 0 9999
L22 46786 53.0541 101.1830 0002203 350.0451 225.4869 15.62785488 13587

Live tracking and technical data element details for STARLINK-1893 (NORAD 46786). STARLINK-1893 can be tracked NOW for your location showing map with azimuth and elevation plus other details from your city location.

Track the satellite on the map from your city or location and see movement details for azimuth, elevation, latitude, longitude, range, height, and movement on the map or in text.







IsCatalogInMostPopularTable: catalog: 46786, numindb: 29
Update: records affected: 1



GetName: 46786 STARLINK-1893

Hit Count: updated at: Mon, 18 Jan 2021 16:38:45 GMT